This is the latest recevied weather packets stored in our database for station/object CT2IRJ-11. If no packets are shown the sender has not sent any weather packets the latest 10 day(s).
| Time | Temp. | Humidity | Pressure | Rain* | Wind** | Luminosity | Snow |
|---|---|---|---|---|---|---|---|
| 1777452810 | 14.44° C | 95% | 1008.5 hPa | 0.25 mm | - | 48 W/m² | - |
| 1777452511 | 14.44° C | 95% | 1008.8 hPa | 0.25 mm | - | 29 W/m² | - |
| 1777452209 | 14.44° C | 95% | 1008.8 hPa | 0.25 mm | - | 51 W/m² | - |
| 1777451910 | 14.44° C | 95% | 1008.5 hPa | 0.25 mm | - | 65 W/m² | - |
| 1777451610 | 14.44° C | 95% | 1008.5 hPa | 0.25 mm | - | 76 W/m² | - |
| 1777451309 | 13.89° C | 95% | 1008.5 hPa | 0.51 mm | - | 68 W/m² | - |
| 1777451010 | 13.89° C | 95% | 1008.5 hPa | 0.51 mm | - | 68 W/m² | - |
| 1777450709 | 13.89° C | 95% | 1008.5 hPa | 0.51 mm | - | 64 W/m² | - |
| 1777450410 | 13.89° C | 95% | 1008.5 hPa | 0.51 mm | - | 51 W/m² | - |
| 1777450109 | 13.89° C | 95% | 1008.5 hPa | 0.76 mm | - | 35 W/m² | - |
| 1777449809 | 13.89° C | 95% | 1008.5 hPa | 0.76 mm | - | 43 W/m² | - |
| 1777449509 | 13.89° C | 94% | 1008.5 hPa | 0.76 mm | - | 36 W/m² | - |
| 1777449211 | 13.89° C | 94% | 1008.1 hPa | 0.51 mm | - | 36 W/m² | - |
| 1777448909 | 13.89° C | 94% | 1008.5 hPa | 0.51 mm | - | 33 W/m² | - |
| 1777448610 | 13.89° C | 94% | 1008.5 hPa | 0.76 mm | - | 20 W/m² | - |
| 1777448309 | 13.89° C | 94% | 1008.1 hPa | 0.76 mm | - | 16 W/m² | - |
| 1777448010 | 13.89° C | 94% | 1008.1 hPa | 1.02 mm | - | 7 W/m² | - |
| 1777447709 | 13.89° C | 94% | 1008.5 hPa | 1.02 mm | - | 8 W/m² | - |
| 1777447410 | 13.89° C | 94% | 1008.1 hPa | 1.02 mm | - | 7 W/m² | - |
| 1777447110 | 13.89° C | 94% | 1008.5 hPa | 1.02 mm | - | 8 W/m² | - |
| 1777446809 | 13.89° C | 94% | 1008.1 hPa | 1.02 mm | - | 10 W/m² | - |
| 1777446510 | 13.89° C | 94% | 1008.5 hPa | 0.76 mm | - | 15 W/m² | - |
| 1777446210 | 13.89° C | 94% | 1008.1 hPa | 0.76 mm | - | 11 W/m² | - |
| 1777445909 | 13.89° C | 94% | 1008.1 hPa | 1.02 mm | - | 19 W/m² | - |
| 1777445610 | 13.89° C | 94% | 1007.8 hPa | 1.02 mm | - | 20 W/m² | - |
* Rain latest hour (hover to see other rain measurements)
** Current wind speed in m/s (hover to see current wind gust speed)